Content
SEND FEEDBACK

Daily
Averages
Monthly
Summary
United States of America

TAMUNING, GUAM


Home > North America > United States > Guam
Elevation: 76 meters     Latitude: 13 29N     Longitude: 144 47E

WEATHER
 
SELECT A DAY
Number of Records: 351,844;   Date Range: 1/1/95 - 10/23/14
 
SHARE

PRINT THIS DATA

[ ← Previous Day ]
WEATHER ALMANAC - 23 JULY, 2013
[ Next Day → ]
[ °F ]   °C
Weather ElementAverageHighLow
Temperature26.1 °C30 °C (1:11 pm)24 °C (5:04 am)
Dewpoint23.8 °C27.2 °C (2:55 pm)21 °C (5:05 am)
Humidity87.4 %95 % (10:55 pm)74 % (5:55 pm)
Barometer1011.2 hPa1013.5 hPa (10:55 pm)1009.8 hPa (3:55 pm)
Wind Speed9.3 km/h33.3 km/h (5:37 am)
Wind Gust48.1 km/h (5:39 am)
Weather ElementAverage
Visibility11.3 km
Wind DirectionSE (137 °)

Weather ElementTotal
Precipitation35.81 mm
Cooling Degree Days8.7 (Base 18.3)
Growing Degree Days17 (Base 10)
Averaged from 100 records on 23 July, 2013
WEATHER CONDITIONS BREAKOUT
WIND DIRECTION BREAKOUT
WEATHER BY HOUR - 23 JULY, 2013
[ °F ]   °C
Local TimeTemperatureDewpointHumidityBarometerVisibilityWind DirectionWind SpeedGust SpeedPrecipitationEventsConditions
12:02 AM27 °C25 °C89 %1011.9 hPa8 kmCalmRainLight Rain
12:06 AM26 °C25 °C94 %1011.9 hPa8 kmCalmRainLight Rain
12:10 AM26 °C25 °C94 %1011.9 hPa9.7 kmCalmRainLight Rain
12:11 AM26 °C25 °C94 %1011.9 hPa12.9 kmNW (310°)5.6 km/hRainLight Rain
12:12 AM26 °C25 °C94 %1011.5 hPa16.1 kmCalmMostly Cloudy
12:29 AM26 °C25 °C94 %1011.5 hPa9.7 kmWest (270°)7.4 km/hRainRain
12:44 AM26 °C24 °C89 %1011.2 hPa16.1 kmWest (280°)5.6 km/hMostly Cloudy
12:55 AM25.6 °C24.4 °C93 %1011.2 hPa16.1 kmCalm1.78 mmMostly Cloudy
1:04 AM26 °C24 °C89 %1011.2 hPa11.3 kmCalmRainLight Rain
1:08 AM26 °C23 °C83 %1011.2 hPa4 kmNorth (360°)5.6 km/hRainHeavy Rain
1:09 AM26 °C23 °C83 %1011.2 hPa3.2 kmCalmRainHeavy Rain
1:12 AM25 °C23 °C89 %1011.2 hPa1.9 kmCalmRainHeavy Rain
1:13 AM25 °C23 °C89 %1011.2 hPa1.9 kmWest (260°)7.4 km/hRainHeavy Rain
1:14 AM25 °C23 °C89 %1011.2 hPa1.9 kmWest (260°)7.4 km/hRainHeavy Rain
1:15 AM25 °C23 °C89 %1011.2 hPa2.4 kmWest (260°)9.3 km/hRainHeavy Rain
1:19 AM25 °C23 °C89 %1011.2 hPa3.2 kmWest (270°)7.4 km/hRainLight Rain
1:20 AM25 °C23 °C89 %1011.2 hPa4.8 kmWest (280°)5.6 km/hRainLight Rain
1:24 AM25 °C23 °C89 %1011.2 hPa12.9 kmCalmRainLight Rain
1:26 AM26 °C23 °C83 %1011.2 hPa16.1 kmCalmOvercast
1:32 AM26 °C24 °C89 %1011.2 hPa16.1 kmCalmRainLight Rain
1:35 AM26 °C24 °C89 %1011.2 hPa11.3 kmCalmRainLight Rain
1:48 AM26 °C24 °C89 %1010.8 hPa16.1 kmCalmMostly Cloudy
1:53 AM26 °C24 °C89 %1010.8 hPa16.1 kmCalmScattered Clouds
1:55 AM26.2 °C24.5 °C90 %1010.8 hPa16.1 kmCalm4.83 mmScattered Clouds
2:55 AM26.3 °C24.9 °C92 %1010.5 hPa16.1 kmNorth (360°)9.3 km/hPartly Cloudy
3:05 AM26 °C24 °C89 %1010.5 hPa16.1 kmNorth (350°)7.4 km/hLight Drizzle
3:15 AM26 °C25 °C94 %1010.5 hPa16.1 kmNorth (350°)7.4 km/hPartly Cloudy
3:35 AM25 °C24 °C94 %1010.5 hPa16.1 kmSouth (190°)11.1 km/hRainLight Rain
3:41 AM25 °C23 °C89 %1010.5 hPa14.5 kmSouth (190°)13 km/hRainLight Rain
3:43 AM25 °C23 °C89 %1010.5 hPa14.5 kmSouth (190°)13 km/hRainLight Rain
3:51 AM25 °C23 °C89 %1010.5 hPa16.1 kmSSW (210°)9.3 km/hRainLight Rain
3:52 AM25 °C23 °C89 %1010.5 hPa16.1 kmSouth (190°)5.6 km/hRainLight Rain
3:55 AM25.1 °C22.1 °C83 %1010.5 hPa16.1 kmCalm0.25 mmRainLight Rain
3:56 AM25 °C22 °C83 %1010.5 hPa16.1 kmCalmRainLight Rain
3:57 AM25 °C22 °C83 %1010.5 hPa16.1 kmCalmLight Drizzle
4:04 AM25 °C23 °C89 %1010.5 hPa16.1 kmNNW (330°)9.3 km/hLight Drizzle
4:06 AM25 °C23 °C89 %1010.5 hPa16.1 kmNW (310°)9.3 km/hMostly Cloudy
4:08 AM25 °C23 °C89 %1010.5 hPa16.1 kmNW (320°)9.3 km/hScattered Clouds
4:51 AM25 °C23 °C89 %1010.8 hPa12.9 kmSouth (190°)18.5 km/hRainLight Rain
4:54 AM25 °C23 °C89 %1010.8 hPa3.2 kmSSW (210°)14.8 km/hRainLight Rain
4:55 AM24.8 °C22.7 °C88 %1010.8 hPa2.4 kmWSW (240°)14.8 km/h7.11 mmRainHeavy Rain
4:56 AM25 °C23 °C89 %1010.8 hPa1.9 kmWest (260°)16.7 km/hRainHeavy Rain
4:59 AM25 °C22 °C83 %1010.8 hPa1.9 kmWSW (240°)16.7 km/hRainHeavy Rain
5:00 AM25 °C22 °C83 %1010.8 hPa1.9 kmWSW (240°)18.5 km/hRainRain
5:03 AM25 °C22 °C83 %1010.8 hPa2.4 kmWSW (250°)18.5 km/hRainLight Rain
5:04 AM24 °C22 °C89 %1010.8 hPa3.2 kmWest (260°)16.7 km/hRainLight Rain
5:05 AM24 °C21 °C83 %1010.8 hPa4 kmWest (260°)14.8 km/hRainLight Rain
5:06 AM24 °C21 °C83 %1010.8 hPa6.4 kmWest (270°)14.8 km/hRainRain
5:07 AM24 °C21 °C83 %1010.8 hPa8 kmWest (270°)13 km/hRainHeavy Rain
5:12 AM24 °C22 °C89 %1010.8 hPa9.7 kmWest (280°)13 km/hRainLight Rain
5:22 AM25 °C22 °C83 %1010.5 hPa16.1 kmWNW (300°)13 km/hOvercast
5:32 AM24 °C21 °C83 %1011.2 hPa16.1 kmNorth (350°)18.5 km/hRainLight Rain
5:36 AM24 °C22 °C89 %1011.2 hPa4 kmNorth (10°)29.6 km/h40.7 km/hRainLight Rain
5:37 AM24 °C22 °C89 %1011.2 hPa3.2 kmNNE (20°)33.3 km/h44.4 km/hRainHeavy Rain
5:39 AM24 °C22 °C89 %1011.5 hPa1.9 kmNNE (20°)16.7 km/h48.1 km/hRainHeavy Rain
5:40 AM25 °C22 °C83 %1011.2 hPa1.6 kmNorth (360°)11.1 km/h48.1 km/hRainHeavy Rain
5:41 AM25 °C22 °C83 %1011.2 hPa1.3 kmNNW (330°)11.1 km/h48.1 km/hRainHeavy Rain
5:43 AM25 °C22 °C83 %1011.2 hPa0.8 kmWNW (300°)14.8 km/h48.1 km/hRainHeavy Rain
5:44 AM24 °C22 °C89 %1011.2 hPa0.8 kmWNW (300°)16.7 km/h48.1 km/hRainHeavy Rain
5:45 AM24 °C22 °C89 %1011.2 hPa0.8 kmNW (310°)13 km/h48.1 km/hRainHeavy Rain
5:47 AM25 °C22 °C83 %1011.2 hPa1.3 kmNorth (350°)5.6 km/h48.1 km/hRainRain
5:48 AM25 °C22 °C83 %1011.2 hPa1.3 kmCalmRainRain
5:50 AM25 °C22 °C83 %1011.2 hPa1.6 kmCalmRainRain
5:51 AM25 °C22 °C83 %1011.2 hPa2.4 kmCalmRainLight Rain
5:52 AM25 °C22 °C83 %1011.2 hPa3.2 kmCalmRainLight Rain
5:53 AM25 °C22 °C83 %1011.2 hPa4.8 kmCalmRainLight Rain
5:55 AM25 °C21.9 °C83 %1011.2 hPa12.9 kmCalm21.84 mmRainLight Rain
5:56 AM25 °C22 °C83 %1011.2 hPa14.5 kmCalmLight Drizzle
5:58 AM25 °C22 °C83 %1011.2 hPa16.1 kmNNE (30°)7.4 km/hScattered Clouds
6:55 AM24.4 °C22.7 °C90 %1011.5 hPa16.1 kmCalm0 mmClear
7:54 AM26 °C24 °C89 %1011.5 hPa16.1 kmENE (60°)5.6 km/hRainHeavy Rain
7:55 AM25.8 °C24.1 °C90 %1011.5 hPa16.1 kmENE (60°)5.6 km/h0 mmRainHeavy Rain
8:11 AM27 °C24 °C84 %1011.5 hPa16.1 kmEast (80°)7.4 km/hClear
8:55 AM27.1 °C25.3 °C90 %1011.5 hPa16.1 kmENE (70°)11.1 km/h0 mmClear
9:55 AM27.8 °C26.1 °C90 %1011.5 hPa16.1 kmEast (100°)11.1 km/hClear
10:55 AM29 °C25 °C79 %1012.9 hPa16.1 kmEast (90°)14.8 km/hPartly Cloudy
12:07 PM29 °C26 °C84 %1011.2 hPa16.1 kmEast (90°)11.1 km/hMostly Cloudy
12:21 PM29 °C26 °C84 %1011.5 hPa16.1 kmEast (90°)16.7 km/hMostly Cloudy
12:48 PM29 °C27 °C89 %1010.8 hPa16.1 kmEast (100°)11.1 km/hMostly Cloudy
12:55 PM29.4 °C26.5 °C84 %1010.8 hPa16.1 kmEast (90°)11.1 km/hMostly Cloudy
1:11 PM30 °C27 °C84 %1010.8 hPa16.1 kmEast (100°)13 km/hMostly Cloudy
1:55 PM29.6 °C27 °C86 %1010.8 hPa16.1 kmEast (90°)16.7 km/hPartly Cloudy
2:08 PM29 °C27 °C89 %1010.5 hPa16.1 kmEast (90°)13 km/hMostly Cloudy
2:30 PM29 °C27 °C89 %1010.5 hPa16.1 kmESE (110°)13 km/hMostly Cloudy
2:31 PM29 °C27 °C89 %1010.2 hPa16.1 kmEast (100°)13 km/hMostly Cloudy
2:38 PM30 °C27 °C84 %1010.2 hPa16.1 kmEast (100°)16.7 km/hMostly Cloudy
2:55 PM30 °C27.2 °C85 %1010.2 hPa16.1 kmEast (100°)14.8 km/hPartly Cloudy
3:55 PM29.8 °C26.5 °C82 %1009.8 hPa16.1 kmEast (80°)13 km/hPartly Cloudy
4:41 PM29 °C27 °C89 %1009.8 hPa16.1 kmENE (70°)16.7 km/hMostly Cloudy
4:44 PM29 °C26 °C84 %1009.8 hPa16.1 kmENE (70°)16.7 km/hScattered Clouds
4:55 PM29.1 °C26.5 °C86 %1009.8 hPa16.1 kmEast (100°)14.8 km/hScattered Clouds
5:55 PM28 °C23 °C74 %1010.5 hPa16.1 kmEast (80°)11.1 km/hScattered Clouds
6:55 PM27.6 °C24.7 °C84 %1010.8 hPa16.1 kmEast (90°)11.1 km/hClear
7:55 PM27.3 °C25.5 °C90 %1011.5 hPa16.1 kmEast (80°)9.3 km/hScattered Clouds
8:55 PM27.4 °C25.8 °C91 %1011.9 hPa16.1 kmENE (70°)13 km/hPartly Cloudy
9:55 PM27.2 °C26 °C93 %1011.9 hPa16.1 kmEast (80°)13 km/hScattered Clouds
10:55 PM27 °C26.1 °C95 %1013.5 hPa16.1 kmENE (60°)11.1 km/hScattered Clouds
11:35 PM27 °C26 °C94 %1011.9 hPa16.1 kmENE (70°)14.8 km/hMostly Cloudy
11:47 PM27 °C26 °C94 %1011.9 hPa16.1 kmENE (70°)16.7 km/hScattered Clouds
11:55 PM27 °C26 °C94 %1011.9 hPa16.1 kmENE (70°)13 km/hScattered Clouds
Hourly data recorded from PGUA, located 0 kilometers away from Tamuning, Guam







STORIES FROM OUR PARTNERS